"datetime","# probes","# resolvers","can_ipv6","can_ipv6_prbs","can_tcp","can_tcp_prbs","can_tcp6","can_tcp6_prbs","does_ecs","does_ecs_prbs","does_flagday","does_flagday_prbs","does_rov4","does_rov4_prbs","does_rov6","does_rov6_prbs","does_qnamemin","doesnt_qnamemin","does_qnamemin_prbs","doesnt_qnamemin_prbs","does_nxdomain","doesnt_nxdomain","does_nxdomain_prbs","doesnt_nxdomain_prbs","has_ta_19036","hasnt_ta_19036","has_ta_19036_prbs","hasnt_ta_19036_prbs","has_ta_20326","hasnt_ta_20326","has_ta_20326_prbs","hasnt_ta_20326_prbs","can_rsamd5","cannot_rsamd5","broken_rsamd5","can_rsamd5_prbs","cannot_rsamd5_prbs","broken_rsamd5_prbs","can_dsa","cannot_dsa","broken_dsa","can_dsa_prbs","cannot_dsa_prbs","broken_dsa_prbs","can_rsasha1","cannot_rsasha1","broken_rsasha1","can_rsasha1_prbs","cannot_rsasha1_prbs","broken_rsasha1_prbs","can_dsansec3","cannot_dsansec3","broken_dsansec3","can_dsansec3_prbs","cannot_dsansec3_prbs","broken_dsansec3_prbs","can_rsansec3","cannot_rsansec3","broken_rsansec3","can_rsansec3_prbs","cannot_rsansec3_prbs","broken_rsansec3_prbs","can_rsasha256","cannot_rsasha256","broken_rsasha256","can_rsasha256_prbs","cannot_rsasha256_prbs","broken_rsasha256_prbs","can_rsasha512","cannot_rsasha512","broken_rsasha512","can_rsasha512_prbs","cannot_rsasha512_prbs","broken_rsasha512_prbs","can_eccgost","cannot_eccgost","broken_eccgost","can_eccgost_prbs","cannot_eccgost_prbs","broken_eccgost_prbs","can_ecdsa256","cannot_ecdsa256","broken_ecdsa256","can_ecdsa256_prbs","cannot_ecdsa256_prbs","broken_ecdsa256_prbs","can_ecdsa384","cannot_ecdsa384","broken_ecdsa384","can_ecdsa384_prbs","cannot_ecdsa384_prbs","broken_ecdsa384_prbs","can_ed25519","cannot_ed25519","broken_ed25519","can_ed25519_prbs","cannot_ed25519_prbs","broken_ed25519_prbs","can_ed448","cannot_ed448","broken_ed448","can_ed448_prbs","cannot_ed448_prbs","broken_ed448_prbs","can_gost","cannot_gost","broken_gost","can_gost_prbs","cannot_gost_prbs","broken_gost_prbs","can_sha384","cannot_sha384","broken_sha384","can_sha384_prbs","cannot_sha384_prbs","broken_sha384_prbs","is_internal","is_forwarding","is_external","is_internal_prbs","is_forwarding_prbs","is_external_prbs"
2017-06-20T23:59:59Z,157,297,261,137,296,157,248,132,36,30,0,0,0,0,0,0,1,296,2,157,0,297,0,157,0,0,0,0,0,0,0,0,15,246,36,13,140,27,263,33,1,147,40,3,297,0,0,157,21,2,263,33,1,147,41,3,295,1,1,156,23,3,295,1,1,156,23,3,295,1,1,156,23,3,251,44,2,140,50,4,296,0,1,156,23,3,297,0,0,157,23,2,0,296,1,0,157,3,0,296,1,0,157,3,285,10,2,151,31,4,293,0,0,155,23,2,246,9,42,139,9,41
2017-06-21T23:59:59Z,156,295,259,136,295,156,248,132,38,33,0,0,0,0,0,0,1,294,2,156,0,295,0,156,0,0,0,0,0,0,0,0,16,241,38,13,139,29,259,35,1,145,42,3,295,0,0,156,22,2,259,35,1,145,43,3,295,0,0,156,23,2,295,0,0,156,23,2,295,0,0,156,23,2,248,46,1,139,52,3,295,0,0,156,24,2,295,0,0,156,24,2,0,294,1,0,156,3,0,294,1,0,156,3,285,9,1,151,29,3,293,0,0,154,24,2,242,8,45,138,9,42
2017-06-22T23:59:59Z,154,296,258,133,295,154,246,128,38,32,0,0,0,0,0,0,2,293,3,153,0,295,0,154,0,0,0,0,0,0,0,0,15,243,37,12,138,27,260,34,1,144,42,2,295,0,0,154,22,1,259,35,1,143,44,2,295,0,0,154,23,1,295,0,0,154,23,1,295,0,0,154,23,1,249,45,1,138,52,2,295,0,0,154,25,1,296,0,0,154,25,1,0,295,1,0,154,2,0,295,1,0,154,2,286,8,1,150,29,3,293,0,0,152,24,2,243,7,45,137,9,42
2017-06-23T23:59:59Z,153,293,255,132,292,153,242,127,36,30,0,0,0,0,0,0,2,290,3,152,0,292,1,153,0,0,0,0,0,0,0,0,15,243,34,12,137,26,258,33,1,143,41,3,290,2,0,153,23,2,257,34,1,142,42,3,291,1,0,153,22,2,291,1,0,153,22,2,291,1,0,153,22,2,247,44,1,137,50,3,292,0,0,153,22,2,293,0,0,153,22,2,0,292,1,0,153,3,0,292,1,0,153,3,283,8,1,149,27,4,288,2,0,151,23,3,242,8,42,136,10,40
2017-06-24T23:59:59Z,149,288,250,128,287,149,236,123,36,30,0,0,0,0,0,0,2,285,3,148,0,287,0,149,0,0,0,0,0,0,0,0,16,236,35,13,133,25,252,34,1,139,40,2,285,2,0,149,22,1,252,34,1,139,40,2,286,1,0,149,21,1,286,1,0,149,21,1,286,1,0,149,21,1,242,44,1,134,48,2,287,0,0,149,21,1,288,0,0,149,21,1,0,287,1,0,149,2,0,287,1,0,149,2,277,9,1,145,27,3,283,2,0,147,22,2,236,8,43,132,9,40
2017-06-25T23:59:59Z,150,289,251,129,288,150,239,124,35,31,0,0,0,0,0,0,2,286,3,149,0,288,0,150,0,0,0,0,0,0,0,0,15,240,33,12,135,24,256,31,1,140,39,2,287,1,0,150,22,1,256,31,1,139,41,2,287,1,0,150,23,1,287,1,0,150,23,1,287,1,0,150,23,1,245,42,1,134,49,2,288,0,0,150,23,1,289,0,0,150,23,1,0,288,1,0,150,2,0,288,1,0,150,2,278,9,1,146,29,3,285,1,0,148,22,2,239,8,41,133,10,39
2017-06-26T23:59:59Z,156,302,263,135,301,156,249,130,37,31,0,0,0,0,0,0,2,299,3,155,0,301,0,156,0,0,0,0,0,0,0,0,16,249,36,13,140,26,266,34,1,145,41,2,300,1,0,156,22,1,266,34,1,145,41,2,300,1,0,156,22,1,300,1,0,156,22,1,300,1,0,156,22,1,255,45,1,140,50,2,301,0,0,156,23,1,302,0,0,156,23,1,0,301,1,0,156,2,0,301,1,0,156,2,290,10,1,152,29,3,298,1,0,154,23,2,248,9,44,137,11,41
2017-06-27T23:59:59Z,153,295,256,132,294,153,243,127,33,27,0,0,0,0,0,0,2,292,3,152,0,294,0,153,0,0,0,0,0,0,0,0,16,245,33,13,137,24,262,31,1,142,38,2,292,1,1,153,20,2,263,30,1,143,38,2,294,0,0,153,20,1,294,0,0,153,20,1,294,0,0,153,20,1,252,41,1,138,47,2,294,0,0,153,21,1,295,0,0,153,21,1,0,294,1,0,153,2,0,294,1,0,153,2,283,10,1,149,28,3,291,1,0,151,21,2,245,9,40,135,10,38
2017-06-28T23:59:59Z,155,296,257,134,295,155,246,129,34,30,0,0,0,0,0,0,2,293,3,154,0,295,0,155,0,0,0,0,0,0,0,0,17,245,33,14,138,26,264,30,1,145,40,3,295,0,0,155,21,3,263,31,1,144,42,3,295,0,0,155,22,3,295,0,0,155,22,2,295,0,0,155,22,2,251,43,1,137,51,4,295,0,0,155,24,3,296,0,0,155,24,3,0,295,1,1,155,3,0,295,1,0,155,3,284,10,1,149,29,5,293,0,0,153,21,3,245,8,42,137,11,40
2017-06-29T23:59:57Z,154,296,258,133,296,154,246,129,35,29,0,0,0,0,0,0,3,293,4,153,0,296,0,154,0,0,0,0,0,0,0,0,17,244,35,14,138,25,263,32,1,143,41,2,296,0,0,154,22,1,263,32,1,143,40,2,296,0,0,154,21,1,296,0,0,154,21,1,296,0,0,154,21,1,250,45,1,136,49,2,296,0,0,154,23,1,296,0,0,154,23,1,0,295,1,0,154,2,0,295,1,0,154,2,284,11,1,148,28,3,294,0,0,152,21,2,244,9,43,135,11,40
2017-06-30T23:59:59Z,154,295,257,133,295,154,243,128,34,29,0,0,0,0,0,0,3,292,4,153,0,295,0,154,0,0,0,0,0,0,0,0,17,245,33,14,139,24,263,31,1,144,40,2,294,1,0,154,22,1,262,32,1,143,41,2,294,1,0,154,21,1,294,1,0,154,21,1,293,1,1,154,21,2,249,44,2,136,50,3,295,0,0,154,22,1,295,0,0,154,22,1,0,294,1,0,154,2,0,294,1,0,154,2,282,12,1,148,29,3,293,0,0,152,20,2,245,8,42,135,11,40
2017-07-01T23:59:59Z,153,291,253,132,291,153,240,128,35,29,0,0,0,0,0,0,2,289,3,152,0,291,0,153,0,0,0,0,0,0,0,0,17,240,34,14,136,25,258,32,1,141,40,2,290,1,0,153,21,1,257,33,1,141,41,2,289,2,0,153,22,1,289,2,0,153,22,1,289,2,0,153,22,1,244,45,2,134,50,3,291,0,0,153,21,1,291,0,0,153,21,1,0,290,1,0,153,2,0,290,1,0,153,2,278,12,1,147,28,3,288,1,0,151,21,2,239,10,42,132,12,40
2017-07-02T23:59:59Z,154,294,256,133,294,154,244,129,34,30,0,0,0,0,0,0,3,290,4,152,0,293,0,153,0,0,0,0,0,0,0,0,16,244,34,13,138,25,262,31,1,143,42,2,293,0,0,153,23,1,261,31,1,142,42,2,294,0,0,154,22,1,294,0,0,154,22,1,294,0,0,154,22,1,249,44,1,136,51,2,294,0,0,154,24,1,294,0,0,154,24,1,0,293,1,0,154,2,0,293,1,0,154,2,281,11,1,147,30,3,291,0,0,151,22,2,243,9,42,134,13,40
2017-07-03T23:59:59Z,155,299,261,135,299,155,250,131,34,28,0,0,0,0,0,0,3,296,4,154,0,299,0,155,0,0,0,0,0,0,0,0,16,249,34,13,139,25,267,32,0,144,40,2,299,0,0,155,21,2,268,31,0,145,39,2,299,0,0,155,21,2,299,0,0,155,21,2,299,0,0,155,21,2,255,44,0,138,48,2,299,0,0,155,22,2,299,0,0,155,22,2,0,299,0,0,155,2,0,299,0,0,155,2,287,12,0,149,29,3,296,1,0,153,21,3,249,8,42,137,10,40
2017-07-04T23:59:59Z,156,302,265,137,302,156,252,132,35,29,0,0,0,0,0,0,2,300,3,156,0,302,0,156,0,0,0,0,0,0,0,0,16,251,35,13,140,25,269,32,1,145,40,2,302,0,0,156,22,1,269,32,1,145,41,2,302,0,0,156,23,1,302,0,0,156,23,1,302,0,0,156,23,1,255,46,1,137,51,2,302,0,0,156,24,1,302,0,0,156,24,1,0,301,1,0,156,2,0,300,2,0,156,3,289,12,1,149,31,3,300,0,0,154,23,2,250,8,44,137,11,41
2017-07-05T23:59:59Z,157,305,267,137,305,157,250,131,35,29,0,0,0,0,0,0,2,303,3,156,0,305,0,157,0,0,0,0,0,0,0,0,16,254,35,13,141,25,271,33,1,147,41,2,304,1,0,157,21,1,271,33,1,147,41,2,304,1,0,157,22,1,304,1,0,157,22,1,304,1,0,157,22,1,257,47,1,139,51,2,305,0,0,157,22,1,305,0,0,157,22,1,0,304,1,0,157,2,0,304,1,0,157,2,291,13,1,150,30,3,302,1,0,155,22,2,253,8,44,139,10,41
2017-07-06T23:59:59Z,157,304,266,137,303,156,248,132,35,28,0,0,0,0,0,0,3,301,4,156,0,303,0,156,0,0,0,0,0,0,0,0,16,254,34,13,142,24,271,32,1,147,39,2,302,1,1,156,21,2,269,33,2,146,40,3,302,2,0,157,22,1,303,1,0,157,21,1,303,1,0,157,21,1,256,47,1,139,50,2,303,0,1,156,21,2,304,0,0,157,21,1,0,303,1,0,157,2,0,303,1,0,157,2,290,13,1,150,29,3,300,2,0,155,22,2,251,10,43,138,11,40
2017-07-07T23:59:59Z,157,304,266,137,304,157,252,132,36,29,0,0,0,0,0,0,3,301,4,156,0,303,0,156,0,0,0,0,0,0,0,0,16,252,36,13,141,25,270,33,1,147,40,2,304,0,0,157,20,1,270,33,1,147,40,2,304,0,0,157,21,1,304,0,0,157,21,1,304,0,0,157,21,1,255,47,2,138,50,3,304,0,0,157,22,1,304,0,0,157,22,1,0,303,1,0,157,2,0,303,1,0,157,2,290,13,1,150,30,3,301,1,0,155,21,2,250,9,45,137,12,41
2017-07-08T23:59:59Z,157,302,264,137,301,157,251,132,34,28,0,0,0,0,0,0,2,300,3,156,0,301,0,156,0,0,0,0,0,0,0,0,16,252,34,13,142,24,270,31,1,147,40,2,302,0,0,157,22,1,270,31,1,147,39,2,302,0,0,157,21,1,302,0,0,157,21,1,302,0,0,157,21,1,256,45,1,139,49,2,302,0,0,157,23,1,302,0,0,157,23,1,0,301,1,0,157,2,0,301,1,0,157,2,289,12,1,150,28,3,300,0,0,155,21,2,250,9,43,138,11,40
2017-07-09T23:59:59Z,160,316,277,140,314,160,263,135,38,30,0,0,0,0,0,0,2,314,3,159,0,315,0,159,0,0,0,0,0,0,0,0,16,265,35,13,145,24,281,35,0,150,42,1,314,2,0,160,23,1,281,35,0,150,42,1,314,1,1,159,22,2,315,1,0,160,22,1,315,1,0,160,22,1,267,49,0,142,52,1,316,0,0,160,22,1,316,0,0,160,22,1,0,316,0,0,160,1,0,316,0,0,160,1,303,13,0,153,30,2,312,2,0,158,23,2,262,10,44,141,11,41
2017-07-10T23:59:59Z,160,311,274,141,311,160,260,136,34,28,0,0,0,0,0,0,2,309,3,159,0,310,1,159,0,0,0,0,0,0,0,0,16,264,31,13,145,22,281,30,0,150,40,1,310,1,0,160,23,1,279,31,1,149,41,2,310,1,0,160,23,1,309,2,0,160,24,1,310,1,0,160,23,1,266,45,0,142,51,1,311,0,0,160,23,1,311,0,0,160,23,1,0,311,0,0,160,1,0,311,0,0,160,1,297,14,0,153,31,3,307,2,0,158,23,3,260,11,40,141,13,39
2017-07-11T23:59:59Z,160,312,276,141,312,160,262,136,35,29,0,0,0,0,0,0,2,310,3,159,0,312,0,160,0,0,0,0,0,0,0,0,14,265,33,12,145,23,278,34,0,150,41,1,309,3,0,160,23,1,280,32,0,150,40,1,312,0,0,160,21,1,311,1,0,160,21,1,311,1,0,160,21,1,267,45,0,142,49,1,312,0,0,160,22,1,312,0,0,160,22,1,0,312,0,0,160,1,0,312,0,0,160,1,299,13,0,153,30,2,308,2,0,158,23,2,262,10,40,142,11,39
2017-07-12T23:59:59Z,159,306,270,140,306,159,256,135,36,30,0,0,0,0,0,0,2,304,3,158,0,306,0,159,0,0,0,0,0,0,0,0,14,257,35,12,143,25,272,34,0,148,43,1,305,1,0,159,23,1,272,34,0,148,43,1,305,1,0,159,23,1,305,1,0,159,23,1,305,1,0,159,23,1,260,46,0,140,52,1,306,0,0,159,23,1,306,0,0,159,23,1,0,306,0,0,159,1,0,306,0,0,159,1,295,11,0,152,29,2,303,1,0,157,22,2,256,8,42,139,11,41
2017-07-13T23:59:59Z,157,307,271,138,307,157,258,133,34,28,0,0,0,0,0,0,3,304,4,156,0,307,0,157,0,0,0,0,0,0,0,0,13,262,32,11,143,23,276,31,0,147,41,1,306,1,0,157,23,1,276,31,0,147,41,1,306,1,0,157,23,1,306,1,0,157,23,1,306,1,0,157,23,1,264,43,0,139,50,1,307,0,0,157,23,1,307,0,0,157,23,1,0,307,0,0,157,1,0,307,0,0,157,1,297,10,0,150,29,2,305,0,0,155,22,2,259,9,39,139,11,39
2017-07-14T23:59:59Z,160,317,281,141,317,160,267,136,36,29,0,0,0,0,0,0,3,314,4,159,0,317,0,160,0,0,0,0,0,0,0,0,13,270,34,11,146,24,283,34,0,150,41,1,315,2,0,160,22,1,283,34,0,150,41,1,315,2,0,160,22,1,315,2,0,160,22,1,315,2,0,160,22,1,271,46,0,142,50,1,316,1,0,160,22,1,317,0,0,160,21,1,0,317,0,0,160,1,0,317,0,0,160,1,305,12,0,153,29,2,313,2,0,158,22,2,268,9,40,141,12,39
2017-07-15T23:59:59Z,160,314,278,140,314,160,264,135,36,29,0,0,0,0,0,0,2,312,3,159,0,314,0,160,0,0,0,0,0,0,0,0,13,266,35,11,145,24,280,34,0,150,41,1,313,1,0,160,21,1,280,34,0,150,41,1,313,1,0,160,21,1,313,1,0,160,21,1,313,1,0,160,21,1,268,46,0,142,50,1,314,0,0,160,21,1,314,0,0,160,21,1,0,314,0,0,160,1,0,314,0,0,160,1,303,11,0,153,28,2,311,1,0,158,21,2,265,9,40,141,11,38
2017-07-16T23:59:59Z,160,315,279,140,315,160,265,135,35,28,0,0,0,0,0,0,2,313,3,159,0,315,0,160,0,0,0,0,0,0,0,0,13,268,34,11,145,23,283,32,0,150,39,1,315,0,0,160,20,1,282,33,0,150,40,1,314,1,0,160,21,1,314,1,0,160,21,1,313,2,0,160,22,1,270,45,0,142,49,1,315,0,0,160,21,1,315,0,0,160,21,1,0,315,0,0,160,1,0,315,0,0,160,1,304,11,0,153,28,2,311,2,0,158,22,2,267,9,39,141,11,37
2017-07-17T23:59:59Z,161,313,284,145,313,161,271,140,36,29,0,0,0,0,0,0,2,311,3,160,0,313,0,161,0,0,0,0,0,0,0,0,13,265,35,11,144,24,280,33,0,149,39,1,313,0,0,161,19,1,280,33,0,149,40,1,313,0,0,161,21,1,313,0,0,161,21,1,312,0,1,161,21,2,268,45,0,141,49,1,313,0,0,161,22,1,313,0,0,161,22,1,0,313,0,0,161,1,0,313,0,0,161,1,303,10,0,154,27,2,311,0,0,159,20,2,264,8,41,141,10,37
2017-07-18T23:59:59Z,162,321,292,147,321,162,271,138,40,31,0,0,0,0,0,0,2,319,3,161,0,321,0,162,0,0,0,0,0,0,0,0,14,268,39,12,146,26,283,38,0,151,43,1,320,1,0,162,22,1,283,37,1,151,43,2,320,1,0,162,21,1,320,1,0,162,21,1,320,1,0,162,21,1,271,50,0,143,52,1,321,0,0,162,22,1,321,0,0,162,22,1,0,321,0,0,162,1,0,321,0,0,162,1,309,11,1,155,29,3,319,0,0,160,20,2,268,8,45,143,10,40
2017-07-19T23:59:59Z,162,320,306,157,320,162,242,137,41,31,0,0,0,0,0,0,2,318,3,161,0,319,1,162,0,0,0,0,0,0,0,0,14,267,39,12,146,27,282,38,0,151,41,2,319,1,0,162,20,2,282,38,0,151,42,2,320,0,0,162,20,2,320,0,0,162,20,2,319,0,1,162,20,3,270,50,0,143,51,2,320,0,0,162,21,2,320,0,0,162,21,3,0,320,0,0,162,3,0,320,0,0,162,3,310,10,0,155,27,3,318,0,0,160,20,3,266,9,45,143,10,39
2017-07-20T23:59:59Z,161,317,302,156,317,161,207,122,38,30,0,0,0,0,0,0,2,315,3,160,0,317,0,161,0,0,0,0,0,0,0,0,14,266,37,12,145,25,282,35,0,150,41,1,317,0,0,161,21,1,282,35,0,150,42,1,317,0,0,161,22,1,317,0,0,161,22,1,317,0,0,161,22,1,270,47,0,142,51,1,317,0,0,161,23,1,317,0,0,161,23,1,0,317,0,0,161,1,0,317,0,0,161,1,307,10,0,154,28,2,315,0,0,159,22,2,266,8,43,142,12,38
2017-07-21T23:59:59Z,164,320,305,159,320,164,210,124,40,31,0,0,0,0,0,0,3,317,4,163,0,320,0,164,0,0,0,0,0,0,0,0,14,267,39,12,147,26,283,37,0,152,42,1,320,0,0,164,21,1,283,37,0,152,41,1,320,0,0,164,19,1,320,0,0,164,19,1,320,0,0,164,19,1,271,49,0,144,50,1,320,0,0,164,22,1,320,0,0,164,22,1,0,320,0,0,164,1,0,320,0,0,164,1,310,10,0,157,28,2,318,0,0,162,21,2,267,8,45,144,9,39
2017-07-22T23:59:59Z,160,310,296,155,310,160,203,119,37,29,0,0,0,0,0,0,3,307,4,159,0,310,0,160,0,0,0,0,0,0,0,0,14,260,36,12,143,24,276,34,0,148,39,1,310,0,0,160,19,1,276,34,0,148,39,1,310,0,0,160,19,1,310,0,0,160,19,1,310,0,0,160,19,1,264,46,0,140,48,1,310,0,0,160,22,1,310,0,0,160,22,1,0,310,0,0,160,1,0,310,0,0,160,1,300,10,0,153,27,2,308,0,0,158,21,2,261,7,42,141,8,37
2017-07-23T23:59:59Z,161,316,302,156,316,161,206,120,40,31,0,0,0,0,0,0,2,314,3,160,0,316,0,161,0,0,0,0,0,0,0,0,14,264,38,12,144,25,279,37,0,149,40,1,315,1,0,161,20,1,279,37,0,149,41,1,316,0,0,161,20,1,316,0,0,161,20,1,316,0,0,161,20,1,267,49,0,141,50,1,316,0,0,161,21,1,316,0,0,161,21,1,0,316,0,0,161,1,0,316,0,0,161,1,305,11,0,154,28,2,314,0,0,159,20,2,264,8,44,141,10,38
2017-07-24T23:59:59Z,165,325,308,160,325,165,209,125,41,31,0,0,0,0,0,0,2,323,3,164,0,325,0,165,0,0,0,0,0,0,0,0,14,271,40,12,147,26,287,38,0,153,41,1,325,0,0,165,19,1,286,39,0,153,42,1,323,2,0,165,21,1,323,2,0,165,21,1,323,2,0,165,21,1,273,52,0,145,51,1,322,3,0,163,22,1,325,0,0,165,20,1,0,325,0,0,165,1,0,325,0,0,165,1,305,19,1,157,34,3,322,1,0,163,20,2,271,9,45,144,11,39
2017-07-25T23:59:59Z,166,324,307,160,324,166,211,122,40,31,0,0,0,0,0,0,2,322,3,165,0,324,0,166,0,0,0,0,0,0,0,0,14,271,39,12,148,26,287,37,0,154,42,1,324,0,0,166,20,1,287,37,0,154,42,1,324,0,0,166,21,1,324,0,0,166,21,1,324,0,0,166,21,1,274,50,0,146,51,1,324,0,0,166,22,1,324,0,0,166,22,1,0,324,0,0,166,1,0,324,0,0,166,1,313,11,0,159,28,2,322,0,0,164,19,2,271,8,45,146,10,39
2017-07-26T23:59:59Z,167,331,314,162,331,167,213,125,44,33,0,0,0,0,0,0,2,329,3,166,0,331,0,167,0,0,0,0,0,0,0,0,14,274,43,12,149,28,290,41,0,155,43,1,331,0,0,167,19,1,290,41,0,155,44,1,331,0,0,167,20,1,331,0,0,167,20,1,331,0,0,167,20,1,277,54,0,147,53,1,331,0,0,167,21,1,331,0,0,167,21,1,0,331,0,0,167,1,0,331,0,0,167,1,320,11,0,160,27,2,328,1,0,165,21,2,274,9,48,146,11,41
2017-07-27T23:59:59Z,162,322,305,157,322,162,216,127,42,32,0,0,0,0,0,0,2,320,3,161,0,322,0,162,0,0,0,0,0,0,0,0,14,267,41,12,145,27,283,39,0,150,42,1,322,0,0,162,19,1,283,39,0,150,43,1,322,0,0,162,20,1,322,0,0,162,19,1,322,0,0,162,19,1,270,52,0,142,52,1,322,0,0,162,21,1,322,0,0,162,21,1,0,322,0,0,162,1,0,322,0,0,162,1,311,11,0,155,27,2,320,0,0,160,20,2,267,8,47,142,10,40
2017-07-28T23:59:59Z,160,316,299,154,316,160,206,120,43,32,0,0,0,0,0,0,2,314,3,159,0,316,0,160,0,0,0,0,0,0,0,0,14,261,41,12,143,27,276,40,0,148,42,1,315,1,0,160,19,1,276,40,0,148,42,1,316,0,0,160,18,1,316,0,0,160,18,1,316,0,0,160,18,1,263,53,0,140,51,1,316,0,0,160,20,1,316,0,0,160,20,1,0,316,0,0,160,1,0,316,0,0,160,1,304,12,0,153,27,2,314,0,0,158,18,2,260,9,47,139,11,40
2017-07-29T23:59:59Z,161,317,300,155,317,161,206,119,41,31,0,0,0,0,0,0,3,314,4,160,0,317,0,161,0,0,0,0,0,0,0,0,15,262,40,13,142,26,279,38,0,149,41,1,317,0,0,161,19,1,278,39,0,149,42,1,315,2,0,161,21,1,315,2,0,161,21,1,316,1,0,161,20,1,264,53,0,140,52,1,317,0,0,161,20,1,317,0,0,161,20,1,0,317,0,0,161,1,0,317,0,0,161,1,304,13,0,153,28,2,314,1,0,159,20,2,262,10,45,139,13,39
2017-07-30T23:59:59Z,161,311,291,154,311,161,199,117,40,32,0,0,0,0,0,0,1,310,2,160,0,311,0,161,0,0,0,0,0,0,0,0,15,257,39,13,142,26,274,37,0,149,41,1,311,0,0,161,18,1,274,37,0,149,41,1,311,0,0,161,19,1,311,0,0,161,18,1,311,0,0,161,19,1,260,51,0,140,51,1,311,0,0,161,21,1,311,0,0,161,21,1,0,311,0,0,161,1,0,311,0,0,161,1,299,12,0,153,28,2,309,0,0,159,20,2,257,9,45,139,14,39
2017-07-31T23:59:59Z,160,317,296,152,316,160,204,122,43,33,0,0,0,0,0,0,2,315,3,159,0,317,0,160,0,0,0,0,0,0,0,0,15,261,41,13,142,27,277,40,0,148,42,1,316,1,0,160,19,1,277,40,0,148,43,1,317,0,0,160,19,1,317,0,0,160,19,1,317,0,0,160,19,1,263,54,0,139,53,1,317,0,0,160,19,1,317,0,0,160,20,1,0,317,0,0,160,1,0,317,0,0,160,1,305,12,0,152,27,2,315,0,0,158,19,2,260,10,47,139,12,40
2017-08-01T23:59:59Z,160,316,295,153,316,160,207,123,42,33,0,0,0,0,0,0,1,315,2,159,0,316,0,160,0,0,0,0,0,0,0,0,15,260,41,13,142,27,277,39,0,148,42,1,316,0,0,160,19,1,277,39,0,148,43,1,316,0,0,160,19,1,316,0,0,160,19,1,316,0,0,160,19,1,263,53,0,139,53,1,316,0,0,160,21,1,316,0,0,160,21,1,0,316,0,0,160,1,0,316,0,0,160,1,304,12,0,152,28,2,314,0,0,158,18,2,260,9,47,139,12,40
2017-08-02T23:59:59Z,159,317,296,152,315,159,209,120,40,32,0,0,0,0,0,0,1,316,2,158,0,317,0,159,0,0,0,0,0,0,0,0,15,264,38,13,142,26,279,38,0,147,42,1,315,2,0,158,20,1,279,38,0,147,42,1,315,2,0,158,20,1,315,2,0,158,20,1,315,2,0,158,20,1,265,52,0,138,52,1,317,0,0,159,20,1,317,0,0,159,20,1,0,317,0,0,159,1,0,317,0,0,159,1,302,15,0,150,29,2,312,3,0,156,21,2,262,11,44,137,15,39
2017-08-03T23:59:59Z,156,308,287,148,308,156,204,120,40,32,0,0,0,0,0,0,1,307,2,155,0,308,0,156,0,0,0,0,0,0,0,0,15,254,39,13,138,26,271,37,0,145,41,1,308,0,0,156,18,1,270,38,0,145,42,1,307,1,0,156,19,1,307,1,0,156,19,1,307,1,0,156,19,1,256,52,0,136,52,1,308,0,0,156,19,1,308,0,0,156,19,1,0,308,0,0,156,1,0,308,0,0,156,1,295,13,0,148,27,2,305,1,0,154,19,2,254,10,44,136,12,39
2017-08-04T23:59:59Z,156,307,286,149,307,156,200,119,40,33,0,0,0,0,0,0,1,306,2,155,0,307,0,156,0,0,0,0,0,0,0,0,15,253,39,13,140,27,270,37,0,145,42,1,307,0,0,156,20,1,270,37,0,145,43,1,307,0,0,156,20,1,307,0,0,156,20,1,307,0,0,156,20,1,256,51,0,136,53,1,307,0,0,156,22,1,307,0,0,156,22,1,0,307,0,0,156,1,0,307,0,0,156,1,295,12,0,148,28,2,305,0,0,154,20,2,253,9,45,135,13,40
2017-08-05T23:59:59Z,156,306,285,149,306,156,200,119,38,31,0,0,0,0,0,0,2,304,3,155,0,306,0,156,0,0,0,0,0,0,0,0,15,254,37,13,139,25,271,35,0,146,41,1,306,0,0,156,19,1,271,35,0,146,42,1,306,0,0,156,20,1,306,0,0,156,20,1,306,0,0,156,20,1,257,49,0,137,52,1,306,0,0,156,21,1,306,0,0,156,21,1,0,306,0,0,156,1,0,306,0,0,156,1,294,12,0,148,28,2,304,0,0,154,20,2,254,10,42,136,13,39
2017-08-06T23:59:59Z,157,308,287,150,308,157,195,117,37,31,0,0,0,0,0,0,1,307,2,156,0,308,0,157,0,0,0,0,0,0,0,0,15,257,36,13,141,25,274,34,0,147,41,1,308,0,0,157,20,1,274,34,0,147,41,1,308,0,0,157,20,1,308,0,0,157,19,1,308,0,0,157,19,1,260,48,0,138,51,1,308,0,0,157,22,1,308,0,0,157,22,1,0,308,0,0,157,1,0,308,0,0,157,1,296,12,0,149,28,2,306,0,0,155,20,2,257,9,42,137,12,39
2017-08-07T23:59:59Z,162,317,295,153,317,162,203,121,43,34,0,0,0,0,0,0,1,316,2,161,0,317,0,162,0,0,0,0,0,0,0,0,15,260,42,13,144,28,277,40,0,151,45,1,317,0,0,162,21,1,277,40,0,151,46,1,316,1,0,162,23,1,316,1,0,162,23,1,316,1,0,162,23,1,263,54,0,142,56,1,317,0,0,162,23,1,317,0,0,162,23,1,0,317,0,0,162,1,0,317,0,0,162,1,304,13,0,154,31,2,315,0,0,160,21,2,260,10,47,142,12,42
2017-08-08T23:59:59Z,160,311,291,152,311,160,201,119,40,33,0,0,0,0,0,0,1,310,2,159,0,311,0,160,0,0,0,0,0,0,0,0,15,257,39,13,143,27,274,37,0,150,43,1,311,0,0,160,20,1,273,38,0,150,44,1,310,1,0,160,21,1,310,1,0,160,21,1,310,1,0,160,21,1,259,52,0,141,54,1,311,0,0,160,22,1,311,0,0,160,22,1,0,311,0,0,160,1,0,311,0,0,160,1,298,13,0,152,30,2,309,0,0,158,20,2,258,9,44,141,12,40
2017-08-09T23:59:59Z,162,315,295,153,315,162,203,122,43,34,0,0,0,0,0,0,2,313,3,161,0,315,0,162,0,0,0,0,0,0,0,0,15,259,41,13,145,28,275,40,0,151,45,1,314,1,0,162,22,1,275,40,0,151,46,1,314,1,0,162,22,1,314,1,0,162,23,1,315,0,0,162,22,1,261,54,0,142,56,1,315,0,0,162,23,1,315,0,0,162,23,1,0,315,0,0,162,1,0,315,0,0,162,1,302,13,0,154,31,2,313,0,0,160,22,2,258,10,47,141,13,42
2017-08-10T23:59:59Z,161,318,298,153,318,161,200,119,42,33,0,0,0,0,0,0,1,317,2,160,0,318,0,161,0,0,0,0,0,0,0,0,15,263,40,13,145,27,279,39,0,151,44,1,317,1,0,161,22,1,278,40,0,151,45,1,317,1,0,161,22,1,317,1,0,161,22,1,317,1,0,161,22,1,264,54,0,142,55,1,318,0,0,161,22,1,318,0,0,161,22,1,0,318,0,0,161,1,0,318,0,0,161,1,304,14,0,153,31,2,314,2,0,159,23,2,262,10,46,142,12,41
2017-08-11T23:59:59Z,158,309,290,150,309,158,200,121,40,33,0,0,0,0,0,0,1,308,2,157,0,309,0,158,0,0,0,0,0,0,0,0,15,255,39,13,142,27,272,37,0,148,44,1,309,0,0,158,22,1,272,37,0,148,44,1,309,0,0,158,21,1,309,0,0,158,21,1,309,0,0,158,21,1,258,51,0,139,54,1,309,0,0,158,24,1,309,0,0,158,24,1,0,309,0,0,158,1,0,309,0,0,158,1,297,12,0,150,30,2,307,0,0,156,22,2,255,9,45,139,13,41
2017-08-12T23:59:59Z,161,312,291,150,312,161,203,120,45,35,0,0,0,0,0,0,2,310,3,160,0,312,0,161,0,0,0,0,0,0,0,0,15,254,43,13,144,29,270,42,0,149,46,1,311,1,0,161,23,1,270,42,0,149,46,1,311,1,0,161,23,1,311,1,0,161,23,1,311,1,0,161,23,1,256,56,0,140,56,1,312,0,0,161,24,1,312,0,0,161,24,1,0,312,0,0,161,1,0,312,0,0,161,1,300,12,0,153,31,2,309,1,0,159,24,2,253,10,49,139,14,43
2017-08-13T23:59:59Z,160,313,292,149,313,160,204,118,43,34,0,0,0,0,0,0,2,311,3,159,0,313,0,160,0,0,0,0,0,0,0,0,15,256,42,13,145,28,273,40,0,150,46,1,313,0,0,160,24,1,273,40,0,150,47,1,313,0,0,160,25,1,313,0,0,160,25,1,313,0,0,160,25,1,259,54,0,141,57,1,313,0,0,160,26,1,313,0,0,160,26,1,0,313,0,0,160,1,0,313,0,0,160,1,301,12,0,152,33,2,311,0,0,158,25,2,256,9,48,141,13,42
2017-08-14T23:59:59Z,163,319,295,151,319,163,204,119,43,33,0,0,0,0,0,0,1,318,2,162,0,319,0,163,0,0,0,0,0,0,0,0,15,263,41,13,147,28,279,40,0,152,44,1,318,1,0,163,22,1,278,41,0,152,45,1,318,1,0,163,22,1,317,1,1,163,22,2,318,1,0,163,22,1,264,55,0,143,55,1,319,0,0,163,22,1,319,0,0,163,22,1,0,319,0,0,163,1,0,319,0,0,163,1,305,14,0,155,31,2,315,2,0,161,23,2,262,10,47,143,13,40
2017-08-15T23:59:59Z,160,314,290,147,314,160,201,116,41,32,0,0,0,0,0,0,1,313,2,159,0,314,0,160,0,0,0,0,0,0,0,0,15,260,39,13,146,26,276,38,0,151,41,1,313,1,0,160,20,1,276,38,0,151,42,1,314,0,0,160,21,1,314,0,0,160,21,1,314,0,0,160,21,1,262,52,0,142,52,1,314,0,0,160,22,1,314,0,0,160,22,1,0,314,0,0,160,1,0,314,0,0,160,2,301,13,0,152,30,2,312,0,0,158,21,2,261,8,45,143,11,39
2017-08-16T23:59:59Z,162,316,291,148,316,162,205,118,43,32,0,0,0,0,0,0,2,314,3,161,0,316,1,162,0,0,0,0,0,0,0,0,15,259,42,13,147,29,276,40,0,153,42,3,316,0,0,162,20,3,276,40,0,153,42,3,315,1,0,162,21,3,315,1,0,162,21,3,315,1,0,162,21,3,262,54,0,144,52,3,316,0,0,162,21,3,316,0,0,162,21,3,0,316,0,0,162,3,0,316,0,0,162,3,304,12,0,154,28,4,314,0,0,160,20,4,261,8,47,145,11,40